PBO Station Position Time Series. Reference Frame : NAM14
Format Version,1.1.0
4-character ID,HJOR
Station name,Hjornefjeldet
Begin Date, 2007-08-14
End Date, 2019-10-07
Release Date, 2019-10-08
Reference position, 63.4182094736 North Latitude, -41.1478677134 East Longitude, 762.68260 meters elevation,
Date, North (mm), East (mm), Vertical (mm), North Std. Deviation (mm), East Std. Deviation (mm),              Vertical Std. Deviation (mm), Quality,
2007-08-14,0.00, 0.00, 0.00, 2.41, 1.62, 8.17, repro,
2007-08-15,-3.08, -0.75, 4.41, 2.49, 1.71, 8.53, repro,
2007-08-16,-2.98, 0.01, 6.63, 2.49, 1.73, 8.39, repro,
2007-08-17,-0.33, 0.14, 6.06, 2.35, 1.60, 7.84, repro,
2007-08-18,-2.31, 1.30, 1.59, 2.32, 1.59, 8.07, repro,
2007-08-19,-1.29, 0.45, 7.38, 2.33, 1.58, 8.08, repro,
2007-08-20,-2.29, 0.22, 6.18, 2.40, 1.62, 8.13, repro,
2007-08-21,0.34, 0.87, 3.86, 2.32, 1.58, 7.80, repro,
2007-08-22,-3.27, 0.11, 10.20, 2.32, 1.61, 8.29, repro,
2007-08-23,-3.77, -1.03, 7.69, 2.32, 1.57, 7.72, repro,
2007-08-24,-3.18, -0.21, 14.66, 2.32, 1.60, 8.01, repro,
2007-08-25,-0.47, 0.29, 8.06, 2.38, 1.62, 8.18, repro,
2007-08-26,-1.67, 0.63, 7.57, 2.44, 1.70, 8.64, repro,
2007-08-27,-1.81, 0.48, 10.13, 2.56, 1.83, 9.33, repro,
2007-08-28,-2.70, 0.71, -3.26, 2.32, 1.59, 8.05, repro,
2007-08-29,-1.86, 0.59, 3.78, 2.30, 1.60, 8.01, repro,
2007-08-30,-3.33, 3.01, 3.84, 2.37, 1.65, 8.11, repro,
2007-08-31,-3.77, 0.52, 8.52, 2.38, 1.64, 8.27, repro,
2007-09-01,-5.12, 1.91, 9.50, 2.46, 1.75, 8.78, repro,
2007-09-02,-1.34, 1.40, 9.74, 2.47, 1.67, 8.55, repro,
2007-09-03,-2.79, 2.82, 14.53, 2.35, 1.60, 8.08, repro,
2007-09-04,-2.88, -0.08, 17.74, 2.42, 1.66, 8.50, repro,
2007-09-05,-4.37, 2.32, 7.92, 2.38, 1.65, 8.37, repro,
2007-09-06,-3.25, 0.41, 2.45, 2.41, 1.68, 8.45, repro,
2007-09-07,-1.05, -0.06, 12.07, 2.37, 1.61, 8.10, repro,
2007-09-08,-2.23, -0.44, 8.01, 2.37, 1.62, 8.18, repro,
2007-09-09,-3.03, 0.30, 3.14, 2.31, 1.61, 8.11, repro,
2007-09-10,-3.21, 0.24, 10.46, 2.34, 1.60, 8.07, repro,
2007-09-11,-2.32, 0.49, 11.65, 2.31, 1.58, 8.00, repro,
2007-09-12,-2.56, 0.23, 6.64, 2.35, 1.58, 8.04, repro,
2007-09-13,-1.48, 0.85, 6.63, 2.31, 1.59, 7.96, repro,
2007-09-14,-1.55, 0.78, 13.24, 2.32, 1.59, 8.00, repro,
2007-09-15,-3.14, 1.01, 10.34, 2.42, 1.65, 8.36, repro,
2007-09-16,-0.70, 1.71, 5.85, 2.35, 1.60, 8.12, repro,
2007-09-17,-2.90, 0.23, 10.11, 2.32, 1.59, 8.03, repro,
2007-09-18,-3.33, 1.14, 13.42, 2.30, 1.55, 7.93, repro,
2007-09-19,-2.19, -0.26, 11.74, 2.26, 1.54, 7.54, repro,
2007-09-20,-0.30, 0.37, 15.43, 2.48, 1.67, 8.17, repro,
2007-09-21,-1.62, 0.38, 8.27, 2.34, 1.58, 7.73, repro,
2007-09-22,-3.04, 0.26, 10.30, 2.36, 1.59, 7.86, repro,
2007-09-23,-1.80, 1.56, 4.59, 2.38, 1.64, 8.26, repro,
2007-09-24,0.92, 0.67, -0.03, 2.45, 1.65, 8.21, repro,
2007-09-25,-2.97, 2.29, 5.28, 2.29, 1.57, 7.67, repro,
2007-09-26,-1.37, -1.84, 16.30, 2.30, 1.56, 7.81, repro,
2007-09-27,-5.27, -1.79, 14.51, 2.45, 1.64, 8.09, repro,
2007-09-28,-2.64, 0.75, 10.14, 2.46, 1.69, 8.39, repro,
2007-09-29,-3.05, 0.56, 10.78, 2.56, 1.71, 8.54, repro,
2007-09-30,-4.15, -0.24, 7.55, 2.40, 1.65, 8.05, repro,
2007-10-01,-4.22, 1.50, 7.77, 2.37, 1.60, 8.10, repro,
2007-10-02,-3.87, 0.31, 13.52, 2.39, 1.66, 8.30, repro,
2007-10-03,-3.44, -0.40, 12.38, 2.41, 1.61, 8.02, repro,
2007-10-04,-1.89, 0.77, 3.52, 2.39, 1.65, 7.99, repro,
2007-10-05,-1.44, -0.47, 4.25, 2.42, 1.66, 8.40, repro,
2007-10-06,-1.80, -0.87, 5.13, 2.34, 1.58, 8.04, repro,
2007-10-07,0.30, -0.74, 4.12, 2.34, 1.59, 8.02, repro,
2007-10-08,-5.12, -0.46, 7.04, 2.52, 1.67, 8.87, repro,
2007-10-09,-2.89, -0.52, -2.70, 2.46, 1.69, 8.50, repro,
2007-10-10,-2.63, 0.06, 2.28, 2.47, 1.68, 8.63, repro,
2007-10-11,-3.09, -0.76, 6.51, 2.33, 1.57, 8.04, repro,
2007-10-12,-1.93, -0.41, 12.90, 2.34, 1.60, 7.86, repro,
2007-10-13,-4.10, 0.19, 10.55, 2.32, 1.56, 7.75, repro,
2007-10-14,-4.92, 0.52, 8.32, 2.29, 1.55, 7.72, repro,
2007-10-15,-5.68, -0.56, 13.16, 2.31, 1.57, 7.92, repro,
2007-10-16,-4.17, -0.20, 9.96, 2.30, 1.55, 7.72, repro,
2007-10-17,-4.83, -0.54, 7.86, 2.28, 1.54, 7.70, repro,
2007-10-18,-4.57, -1.47, 15.92, 2.40, 1.66, 8.09, repro,
2007-10-19,-3.41, -0.91, 10.39, 2.47, 1.67, 8.24, repro,
2007-10-20,1.22, -0.57, 7.41, 2.47, 1.72, 8.64, repro,
2007-10-21,-4.68, 0.75, 13.19, 2.30, 1.58, 7.79, repro,
2007-10-22,-4.74, 0.14, 11.83, 2.31, 1.57, 7.70, repro,
2007-10-23,-1.30, -0.11, 11.86, 2.36, 1.61, 8.22, repro,
2007-10-24,-3.48, 1.80, 16.19, 2.36, 1.61, 8.21, repro,
2007-10-25,-3.87, 2.74, 14.76, 2.45, 1.69, 8.45, repro,
2007-10-26,-1.41, 3.05, 14.16, 2.42, 1.64, 8.17, repro,
2007-10-27,-1.77, 1.58, 13.66, 2.30, 1.59, 7.76, repro,
2007-10-28,-0.28, 2.21, 1.95, 2.30, 1.59, 7.84, repro,
2007-10-29,-1.94, 2.65, 5.16, 2.41, 1.61, 8.02, repro,
2007-10-30,-3.35, 1.04, 5.06, 2.36, 1.62, 8.06, repro,
2007-10-31,-1.78, 0.82, 2.48, 2.28, 1.55, 7.69, repro,
2007-11-01,-0.98, -0.13, 5.66, 2.29, 1.57, 7.94, repro,
2007-11-02,-0.25, 0.26, 2.14, 2.24, 1.53, 7.50, repro,
2007-11-03,-2.59, 0.37, 3.97, 2.30, 1.52, 7.57, repro,
2007-11-04,-3.75, 0.55, 3.43, 2.28, 1.53, 7.59, repro,
2007-11-05,-1.66, -0.58, 5.91, 2.26, 1.51, 7.51, repro,
2007-11-06,-1.89, -0.55, 2.26, 2.28, 1.55, 7.54, repro,
2007-11-07,-0.11, -0.12, 1.34, 2.27, 1.54, 7.55, repro,
2007-11-08,-3.06, 0.64, 3.13, 2.30, 1.53, 7.69, repro,
2007-11-09,-1.60, -0.38, 7.01, 2.36, 1.57, 7.89, repro,
2007-11-10,-2.08, -1.26, 2.37, 2.28, 1.53, 7.57, repro,
2007-11-11,-1.99, -0.56, 11.09, 2.27, 1.53, 7.52, repro,
2007-11-12,-0.93, 0.17, 10.53, 2.25, 1.53, 7.46, repro,
2007-11-13,-2.19, -0.90, 5.66, 2.36, 1.61, 7.92, repro,
2007-11-14,-1.86, -2.04, 14.77, 2.41, 1.61, 7.97, repro,
2007-11-15,-1.21, -2.14, 14.96, 2.43, 1.66, 8.03, repro,
2007-11-16,-2.11, -1.85, 15.37, 2.33, 1.59, 7.73, repro,
2007-11-17,-2.13, -0.82, 6.28, 2.24, 1.51, 7.45, repro,
2007-11-18,-0.36, -1.81, 7.01, 2.53, 1.79, 8.82, repro,
2007-11-19,1.55, 0.72, 8.49, 2.33, 1.57, 7.69, repro,
2007-11-20,1.86, -0.88, 11.45, 2.64, 1.75, 8.63, repro,
2007-11-21,-0.79, -2.10, 9.51, 2.36, 1.57, 7.87, repro,
2007-11-22,1.51, 0.21, 7.17, 2.62, 1.79, 8.74, repro,
2007-11-23,0.18, 0.73, 7.85, 2.45, 1.67, 8.13, repro,
2007-11-24,-1.77, 0.81, 4.49, 2.42, 1.64, 8.03, repro,
2007-11-25,-2.15, 1.06, 8.27, 2.38, 1.60, 7.90, repro,
2007-11-26,-1.53, 1.66, 9.17, 2.40, 1.63, 7.85, repro,
2007-11-27,-2.22, -0.63, 7.29, 2.48, 1.68, 8.52, repro,
2007-11-28,-3.98, -0.08, 6.59, 2.37, 1.60, 7.92, repro,
2007-11-29,-2.45, 0.66, 9.15, 2.36, 1.62, 7.81, repro,
2007-11-30,-1.67, 0.14, 0.77, 2.48, 1.68, 8.19, repro,
2007-12-01,-0.95, -0.52, -4.55, 2.42, 1.63, 8.08, repro,
2007-12-02,1.93, -0.68, 5.83, 2.35, 1.61, 7.71, repro,
2007-12-03,-1.52, -0.70, -0.42, 2.42, 1.66, 7.89, repro,
2007-12-04,-2.58, 0.41, 11.62, 2.32, 1.58, 7.73, repro,
2007-12-05,-2.51, 0.64, 13.00, 2.39, 1.62, 8.04, repro,
2007-12-06,-0.68, -0.32, 4.59, 2.39, 1.62, 7.80, repro,
2007-12-07,-3.37, -1.37, 6.80, 2.40, 1.62, 7.89, repro,
2007-12-08,-1.20, -1.62, -0.08, 2.38, 1.61, 7.85, repro,
2007-12-09,-0.94, -0.28, -1.09, 2.40, 1.66, 7.89, repro,
2007-12-10,-1.98, -0.55, 2.39, 2.46, 1.69, 8.17, repro,
2007-12-11,-3.24, 0.07, 10.42, 2.43, 1.65, 8.20, repro,
2007-12-12,-2.27, -1.22, 2.71, 2.60, 1.78, 8.74, repro,
2007-12-13,-4.94, 0.00, 4.82, 2.47, 1.68, 8.17, repro,
2007-12-14,-0.90, 1.16, 9.89, 2.43, 1.68, 8.16, repro,
2007-12-15,-2.40, -0.25, 8.34, 2.41, 1.67, 8.04, repro,
2007-12-16,-3.63, -2.84, 7.25, 2.42, 1.64, 7.99, repro,
2007-12-17,-2.36, -0.15, 2.30, 2.62, 1.84, 8.80, repro,
2007-12-18,-0.94, -2.04, 1.65, 2.44, 1.67, 8.10, repro,
2007-12-19,-2.41, -1.27, 5.99, 2.36, 1.62, 7.94, repro,
2007-12-20,-2.11, -2.67, 0.29, 2.43, 1.70, 8.15, repro,
2007-12-21,-2.97, -1.17, 3.17, 2.46, 1.70, 8.02, repro,
2007-12-22,-3.52, -2.13, 4.88, 2.33, 1.61, 7.90, repro,
2007-12-23,-3.19, -2.36, 10.25, 2.36, 1.60, 7.77, repro,
2007-12-24,-2.43, -1.23, 12.00, 2.33, 1.58, 7.78, repro,
2007-12-25,-3.28, -0.55, 11.52, 2.33, 1.57, 7.81, repro,
2007-12-26,-2.48, -2.07, 7.49, 2.27, 1.57, 7.59, repro,
2007-12-27,-2.09, -1.42, 5.99, 2.38, 1.60, 7.74, repro,
2007-12-28,-2.92, -3.29, 6.50, 2.38, 1.60, 7.79, repro,
2007-12-29,-1.56, -1.56, 0.01, 2.38, 1.59, 7.77, repro,
2007-12-30,-2.05, -1.34, 4.16, 2.34, 1.58, 7.67, repro,
2007-12-31,-1.52, -0.38, 3.53, 2.25, 1.54, 7.50, repro,
2008-01-01,-2.24, -0.25, 4.01, 2.30, 1.60, 7.76, repro,
2008-01-02,-0.96, -0.84, -1.07, 2.28, 1.55, 7.55, repro,
2008-01-03,-0.42, -1.31, 3.83, 2.26, 1.52, 7.54, repro,
2008-01-04,-0.25, -0.81, 6.91, 2.24, 1.52, 7.45, repro,
2008-01-05,-2.31, -1.34, 8.34, 2.53, 1.76, 8.34, repro,
2008-01-06,-2.21, -2.37, 4.78, 2.37, 1.61, 7.90, repro,
2008-01-07,-2.96, -2.53, 8.71, 2.34, 1.61, 7.95, repro,
2008-01-08,-3.48, -1.51, 3.26, 2.36, 1.60, 7.87, repro,
2008-01-09,-2.97, -2.27, 2.19, 2.31, 1.57, 7.82, repro,
2008-01-10,-2.65, -2.13, 5.98, 2.24, 1.52, 7.62, repro,
2008-01-11,-3.88, -3.11, 3.50, 2.27, 1.54, 7.56, repro,
2008-01-12,-1.53, -2.86, -0.26, 2.29, 1.53, 7.60, repro,
2008-01-13,-1.21, -2.01, -4.95, 2.33, 1.58, 7.90, repro,
2008-01-14,-0.47, -2.60, -0.05, 2.45, 1.61, 8.26, repro,
2008-01-15,-0.55, -1.28, -0.79, 2.36, 1.59, 7.90, repro,
2008-01-16,-1.78, -1.71, -0.98, 2.48, 1.70, 8.24, repro,
2008-01-17,-2.90, -1.62, 7.31, 2.55, 1.74, 8.68, repro,
2008-01-18,-1.98, -2.07, 4.87, 2.32, 1.57, 7.73, repro,
2008-01-19,0.93, -0.97, -2.67, 2.55, 1.66, 8.33, repro,
2008-01-20,-0.55, 0.45, -6.13, 2.36, 1.55, 7.72, repro,
2008-01-21,-0.53, -1.83, 1.80, 2.37, 1.58, 8.11, repro,
2008-01-22,-0.53, -1.56, 7.37, 2.43, 1.60, 7.84, repro,
2008-01-23,1.83, 2.44, 8.40, 2.28, 1.54, 7.54, repro,
2008-01-24,2.30, 4.97, 2.71, 2.34, 1.57, 7.64, repro,
2008-01-25,2.14, 2.86, -1.11, 2.78, 1.79, 9.04, repro,
2008-01-26,0.65, 2.99, -1.46, 2.60, 1.66, 8.25, repro,
2008-01-27,3.20, 4.60, -2.25, 2.45, 1.62, 7.95, repro,
2008-01-28,0.26, 1.91, -4.19, 2.49, 1.63, 8.08, repro,
2008-01-29,-0.02, 0.97, -2.11, 2.43, 1.63, 8.46, repro,
2008-01-30,3.97, 2.49, -2.47, 2.47, 1.66, 8.29, repro,
2008-01-31,3.41, -1.23, -11.80, 2.61, 1.76, 8.97, repro,
2008-02-01,1.51, -0.74, -2.14, 2.65, 1.80, 8.58, repro,
2008-02-02,0.63, -2.30, 0.48, 2.47, 1.65, 8.21, repro,
2008-02-03,3.69, -2.29, 0.09, 2.57, 1.67, 8.43, repro,
2008-02-04,2.54, -3.20, -3.32, 2.33, 1.55, 7.65, repro,
2008-02-05,1.78, -0.83, -2.09, 2.67, 1.72, 9.03, repro,
2008-02-06,2.55, -1.92, -0.93, 2.51, 1.69, 8.30, repro,
2008-02-07,1.45, -1.56, 1.77, 2.41, 1.63, 8.11, repro,
2008-02-08,-0.67, 0.43, 4.72, 2.35, 1.58, 7.84, repro,
2008-02-09,0.27, -0.64, 0.75, 2.27, 1.54, 7.55, repro,
2008-02-10,4.37, 0.82, -3.82, 2.37, 1.58, 7.79, repro,
2008-02-11,3.79, 0.57, -7.54, 2.40, 1.59, 7.82, repro,
2008-02-12,4.78, -0.10, -11.63, 2.33, 1.61, 7.81, repro,
2008-02-13,0.58, -1.21, -11.02, 2.25, 1.54, 7.56, repro,
2008-02-14,2.37, -1.74, -7.25, 2.43, 1.64, 7.96, repro,
2008-02-15,2.21, -1.61, -5.70, 2.33, 1.59, 7.77, repro,
2008-02-16,2.15, 0.22, -5.88, 2.24, 1.52, 7.50, repro,
2008-02-17,2.54, 0.35, -10.86, 2.22, 1.52, 7.45, repro,
2008-02-18,4.49, -0.13, 1.08, 2.34, 1.61, 8.02, repro,
2008-02-19,1.98, -0.15, -1.48, 2.28, 1.56, 7.67, repro,
2008-02-20,2.82, 0.94, 4.24, 2.29, 1.57, 7.77, repro,
2008-02-21,1.43, 0.83, 8.32, 2.23, 1.52, 7.46, repro,
2008-02-22,1.48, 0.21, 2.52, 2.24, 1.53, 7.54, repro,
2008-02-23,1.01, -0.61, 5.36, 2.24, 1.53, 7.50, repro,
2008-02-24,2.62, 0.63, -3.34, 2.30, 1.55, 7.60, repro,
2008-02-25,1.65, -0.64, -3.56, 2.24, 1.52, 7.50, repro,
2008-02-26,1.19, -0.41, -2.34, 2.24, 1.52, 7.49, repro,
2008-02-27,1.25, 0.39, -5.83, 2.30, 1.58, 7.77, repro,
2008-02-28,1.53, -0.17, -4.89, 2.66, 1.88, 9.02, repro,
2008-02-29,2.40, 0.36, -7.64, 2.56, 1.75, 8.62, repro,
2008-03-01,-0.39, -1.90, -3.59, 2.40, 1.60, 7.85, repro,
2008-03-02,0.79, -2.43, -6.32, 2.34, 1.61, 7.90, repro,
2008-03-03,1.52, -1.82, -7.37, 2.31, 1.56, 7.73, repro,
2008-03-04,1.74, -1.69, -6.55, 2.26, 1.52, 7.59, repro,
2008-03-05,2.62, -1.07, -8.90, 2.40, 1.67, 8.52, repro,
2008-03-06,1.31, -2.28, -1.11, 2.29, 1.55, 7.66, repro,
2008-03-07,1.91, -2.54, -0.37, 2.28, 1.53, 7.54, repro,
2008-03-08,3.32, 0.26, -0.79, 2.31, 1.56, 7.73, repro,
2008-03-09,-0.97, -0.77, 6.28, 2.68, 1.81, 8.85, repro,
2008-03-10,-0.57, -1.03, 5.27, 2.41, 1.63, 7.92, repro,
2008-03-11,2.00, -1.84, 5.84, 2.27, 1.55, 7.62, repro,
2008-03-12,-0.90, -3.94, 1.31, 2.38, 1.59, 7.90, repro,
2008-03-13,0.38, -3.11, -3.97, 2.39, 1.60, 7.91, repro,
2008-03-14,0.49, -3.20, -9.12, 2.49, 1.70, 8.33, repro,
2008-03-15,1.25, -4.43, -11.07, 2.45, 1.70, 8.51, repro,
2008-03-16,-0.21, -5.26, -8.57, 2.38, 1.65, 7.96, repro,
2008-03-17,1.72, -6.07, -5.80, 2.48, 1.70, 8.53, repro,
2008-03-18,1.69, -6.01, -5.82, 2.49, 1.66, 8.20, repro,
2008-03-19,2.49, -3.79, -3.52, 2.42, 1.59, 7.89, repro,
2008-03-20,3.05, -3.23, -8.22, 2.32, 1.56, 7.67, repro,
2008-03-21,3.66, -4.84, -2.14, 2.39, 1.60, 7.85, repro,
2008-03-22,-0.99, -5.52, -5.16, 2.42, 1.62, 8.04, repro,
2008-03-23,0.39, -3.96, 0.44, 2.37, 1.58, 7.83, repro,
2008-03-24,0.93, -3.75, -6.49, 2.34, 1.58, 7.71, repro,
2008-03-25,-0.92, -4.02, -2.19, 2.34, 1.59, 8.09, repro,
2008-03-26,-1.62, -2.86, -3.74, 2.57, 1.73, 8.88, repro,
2008-03-27,-2.34, -4.37, 0.90, 2.77, 1.80, 9.25, repro,
2008-03-28,0.64, -4.67, -2.08, 2.94, 1.86, 9.38, repro,
2008-03-29,-0.01, -2.14, -8.79, 2.30, 1.54, 7.67, repro,
2008-03-30,0.40, -4.87, -7.97, 2.28, 1.55, 7.71, repro,
2008-03-31,-0.03, -3.38, -6.53, 2.26, 1.52, 7.55, repro,
2008-04-01,-0.75, -4.62, -8.18, 2.47, 1.67, 8.19, repro,
2008-04-02,-0.97, -3.14, -12.52, 2.30, 1.54, 7.54, repro,
2008-04-03,-1.34, -5.56, -13.60, 2.25, 1.50, 7.44, repro,
2008-04-04,1.36, -3.25, -16.21, 2.37, 1.58, 7.89, repro,
2008-04-05,-0.52, -6.05, -14.04, 2.32, 1.56, 7.74, repro,
2008-04-06,-0.49, -5.77, -17.16, 2.34, 1.57, 7.94, repro,
2008-04-07,-2.65, -5.75, -11.60, 2.37, 1.58, 7.79, repro,
2008-04-08,-3.46, -3.35, -12.45, 2.25, 1.51, 7.43, repro,
2008-04-09,-2.98, -4.90, -6.20, 2.37, 1.59, 7.84, repro,
2008-04-10,-2.84, -5.21, -11.50, 2.29, 1.53, 7.57, repro,
2008-04-11,-3.02, -4.46, -10.25, 2.25, 1.51, 7.50, repro,
2008-04-12,-2.19, -3.78, -16.00, 2.31, 1.54, 7.70, repro,
2008-04-13,-0.18, -3.65, -12.78, 2.33, 1.55, 7.64, repro,
2008-04-14,-0.61, -3.42, -7.40, 2.26, 1.50, 7.45, repro,
2008-04-15,-0.68, -3.26, -4.45, 2.39, 1.60, 7.86, repro,
2008-04-16,-3.30, -3.80, -2.98, 2.66, 1.81, 9.00, repro,
2008-04-17,-1.67, -4.77, -0.30, 2.29, 1.53, 7.61, repro,
2008-04-18,-2.46, -5.37, -8.73, 2.31, 1.56, 7.67, repro,
2008-04-19,-1.21, -6.56, -10.30, 2.28, 1.52, 7.64, repro,
2008-04-20,-1.03, -5.03, -13.82, 2.31, 1.58, 7.68, repro,
2008-04-21,-1.66, -4.96, -11.57, 2.29, 1.53, 7.52, repro,
2008-04-22,-0.85, -3.61, -13.07, 2.29, 1.54, 7.66, repro,
2008-04-23,-0.93, -3.99, -1.64, 3.34, 2.14, 10.71, repro,
2008-04-24,-2.11, -3.84, -15.10, 2.53, 1.66, 8.18, repro,
2008-04-25,-0.62, -5.02, -15.36, 2.35, 1.55, 7.64, repro,
2008-04-26,-0.45, -5.09, -12.62, 2.56, 1.68, 8.34, repro,
2008-04-27,1.18, -3.57, -13.67, 2.32, 1.56, 7.77, repro,
2008-04-28,-1.94, -6.08, -16.97, 2.34, 1.56, 7.72, repro,
2008-04-29,0.52, -6.71, -16.03, 2.44, 1.60, 8.05, repro,
2008-04-30,-0.63, -6.89, -13.33, 2.30, 1.54, 7.66, repro,
2008-05-01,1.41, -6.17, -16.76, 2.35, 1.61, 7.83, repro,
2008-05-02,2.04, -4.50, -19.66, 2.32, 1.55, 7.60, repro,
2008-05-03,-0.19, -5.53, -9.89, 2.43, 1.67, 8.14, repro,
2008-05-04,0.44, -5.28, -13.34, 2.30, 1.53, 7.62, repro,
2008-05-05,-2.38, -6.47, -15.17, 2.34, 1.54, 7.80, repro,
2008-05-06,-2.37, -6.83, -10.18, 2.31, 1.53, 7.61, repro,
2008-05-07,-1.75, -7.24, -6.86, 2.34, 1.58, 7.66, repro,
2008-05-08,-1.72, -6.21, -10.76, 2.28, 1.53, 7.57, repro,
2008-05-09,-1.49, -7.15, -4.16, 2.24, 1.50, 7.52, repro,
2008-05-10,-0.71, -6.06, -8.71, 2.25, 1.49, 7.47, repro,
2008-05-11,-1.08, -5.53, -4.91, 2.25, 1.51, 7.52, repro,
2008-05-12,-3.35, -6.44, 0.64, 2.22, 1.49, 7.42, repro,
2008-05-13,0.15, -5.29, -8.27, 2.24, 1.51, 7.51, repro,
2008-05-14,-0.82, -6.86, -9.34, 2.25, 1.50, 7.50, repro,
2008-05-15,0.30, -6.73, -11.89, 2.27, 1.50, 7.54, repro,
2008-05-16,1.00, -4.78, -12.44, 2.29, 1.52, 7.49, repro,
2008-05-17,1.18, -5.05, -9.42, 2.23, 1.49, 7.44, repro,
2008-05-18,0.54, -5.24, -7.89, 2.21, 1.49, 7.40, repro,
2008-05-19,0.50, -5.28, -5.10, 2.26, 1.51, 7.52, repro,
2008-05-20,0.46, -5.25, -3.97, 2.37, 1.60, 7.73, repro,
2008-05-21,-0.01, -4.66, -6.66, 2.33, 1.58, 7.82, repro,
2008-05-22,-0.46, -3.92, -10.46, 2.43, 1.62, 7.95, repro,
2008-05-23,-0.45, -4.44, -11.63, 2.35, 1.60, 7.82, repro,
2008-05-24,-1.58, -3.18, -9.84, 2.29, 1.55, 7.63, repro,
2008-05-25,0.91, -3.85, -6.53, 2.41, 1.60, 7.92, repro,
2008-05-26,1.19, -3.92, -8.82, 2.31, 1.54, 7.64, repro,
2008-05-27,0.91, -3.71, -8.46, 2.29, 1.56, 7.64, repro,
2008-05-28,-0.23, -4.96, -7.70, 2.38, 1.57, 7.80, repro,
2008-05-29,1.11, -4.85, -9.27, 2.31, 1.54, 7.70, repro,
2008-05-30,1.30, -1.87, -8.32, 2.36, 1.57, 7.88, repro,
2008-05-31,4.31, -3.62, -2.38, 2.36, 1.58, 7.79, repro,
2008-06-01,3.32, -3.15, -4.77, 2.31, 1.54, 7.64, repro,
2008-06-02,1.11, -3.34, -11.19, 2.24, 1.52, 7.49, repro,
2008-06-03,1.16, -3.10, -9.73, 2.28, 1.54, 7.59, repro,
2008-06-04,0.07, -2.17, -4.01, 2.37, 1.61, 7.81, repro,
2008-06-05,1.26, -2.08, -7.16, 2.25, 1.52, 7.54, repro,
2008-06-06,-0.23, -2.20, -6.01, 2.31, 1.55, 7.70, repro,
2008-06-07,-4.29, -2.55, 2.56, 2.54, 1.65, 8.34, repro,
2008-06-08,-1.32, -2.21, -6.54, 2.41, 1.61, 7.95, repro,
2008-06-09,-0.57, -1.30, -7.32, 2.31, 1.55, 7.75, repro,
2008-06-10,1.13, -3.38, -6.95, 2.23, 1.50, 7.44, repro,
2008-06-11,0.85, -2.87, -9.04, 2.27, 1.52, 7.58, repro,
2008-06-12,1.49, -2.69, -7.93, 2.29, 1.55, 7.65, repro,
2008-06-13,1.96, -2.09, -8.17, 2.23, 1.51, 7.48, repro,
2008-06-14,1.89, -2.71, -10.15, 2.44, 1.65, 8.30, repro,
2008-06-15,1.69, -1.57, -9.14, 2.50, 1.70, 8.38, repro,
2008-06-16,1.56, -3.28, -12.02, 2.38, 1.62, 7.94, repro,
2008-06-17,0.20, -1.45, -5.78, 2.42, 1.58, 7.92, repro,
2008-06-18,2.89, -1.52, -8.83, 2.33, 1.56, 7.74, repro,
2008-06-19,-1.03, -0.35, -4.93, 2.26, 1.54, 7.54, repro,
2008-06-20,-2.23, -2.22, -5.24, 2.45, 1.66, 8.29, repro,
2008-06-21,1.23, -1.33, -11.39, 2.32, 1.59, 7.65, repro,
2008-06-22,1.63, -1.52, -7.74, 2.27, 1.53, 7.59, repro,
2008-06-23,1.78, -0.40, -8.58, 2.27, 1.53, 7.57, repro,
2008-06-24,2.86, 0.06, -12.09, 2.29, 1.55, 7.61, repro,
2008-06-25,3.10, 0.62, -9.46, 2.37, 1.60, 7.92, repro,
2008-06-26,-0.03, -2.29, -6.74, 2.38, 1.63, 8.03, repro,
2008-06-27,-0.28, -1.30, -7.00, 2.30, 1.56, 7.81, repro,
2008-06-28,1.34, -1.21, -7.70, 2.27, 1.52, 7.60, repro,
2008-06-29,1.60, -1.63, -9.37, 2.32, 1.57, 7.79, repro,
2008-06-30,1.87, -1.95, -4.01, 2.25, 1.53, 7.56, repro,
2008-07-01,2.37, 0.04, -4.46, 2.27, 1.54, 7.60, repro,
2008-07-02,0.21, -1.39, -8.13, 2.26, 1.52, 7.63, repro,
2008-07-03,0.11, -2.39, -3.44, 2.27, 1.51, 7.59, repro,
2008-07-04,-1.22, -2.27, -9.59, 2.27, 1.51, 7.61, repro,
2008-07-05,0.54, -0.78, -7.63, 2.29, 1.55, 7.61, repro,
2008-07-06,2.00, -0.45, -6.02, 2.26, 1.51, 7.53, repro,
2008-07-07,-1.29, -0.18, -3.13, 2.27, 1.52, 7.56, repro,
2008-07-08,0.05, -1.48, 1.93, 2.32, 1.55, 7.71, repro,
2008-07-09,0.43, -1.33, 0.08, 2.25, 1.51, 7.51, repro,
2008-07-10,0.36, -1.32, -0.45, 2.32, 1.57, 7.95, repro,
2008-07-11,-1.29, -2.01, -0.67, 2.29, 1.57, 7.87, repro,
2008-07-12,0.89, -1.77, 4.34, 2.48, 1.72, 8.34, repro,
2008-07-13,-0.13, -0.32, 2.54, 2.47, 1.69, 8.26, repro,
2008-07-14,-0.96, -0.06, 7.71, 2.30, 1.57, 7.79, repro,
2008-07-15,0.56, 0.21, 3.86, 2.33, 1.58, 8.01, repro,
2008-07-16,-0.20, -1.57, -0.94, 2.27, 1.54, 7.68, repro,
2008-07-17,0.28, -0.53, 5.07, 2.26, 1.52, 7.61, repro,
2008-07-18,-0.47, -2.66, 5.10, 2.31, 1.56, 7.66, repro,
2008-07-19,-1.85, -1.35, 0.51, 2.30, 1.56, 7.64, repro,
2008-07-20,1.30, -1.82, 6.34, 2.25, 1.51, 7.48, repro,
2008-07-21,-0.96, 0.13, 6.84, 2.32, 1.54, 7.66, repro,
2008-07-22,-0.32, -0.03, 0.05, 2.33, 1.57, 7.87, repro,
2008-07-23,-0.09, 1.98, 3.53, 2.39, 1.58, 7.86, repro,
2008-07-24,-1.00, -1.73, 5.91, 2.29, 1.52, 7.61, repro,
2008-07-25,-1.84, -2.09, 7.08, 2.24, 1.50, 7.43, repro,
2008-07-26,-0.23, -1.42, -0.72, 2.29, 1.52, 7.60, repro,
2008-07-27,0.07, 0.02, -2.50, 2.30, 1.58, 7.72, repro,
2008-07-28,-2.67, 0.28, 3.17, 2.29, 1.54, 7.78, repro,
2008-07-29,-0.97, -1.10, 4.34, 2.34, 1.54, 7.67, repro,
2008-07-30,1.92, -0.70, 3.31, 2.37, 1.60, 7.75, repro,
2008-07-31,-3.16, -0.26, 6.44, 2.26, 1.52, 7.53, repro,
2008-08-01,-1.55, 0.54, 0.86, 2.23, 1.50, 7.52, repro,
2008-08-02,-1.06, -0.48, 2.67, 2.25, 1.51, 7.54, repro,
2008-08-03,-1.39, -0.70, 2.45, 2.31, 1.56, 7.62, repro,
2008-08-04,0.63, -0.20, 6.94, 2.27, 1.54, 7.55, repro,
2008-08-05,-1.50, 1.51, 4.05, 2.24, 1.51, 7.50, repro,
2008-08-06,-3.38, 0.73, 2.15, 2.31, 1.54, 7.68, repro,
2008-08-07,-1.04, 2.01, 2.70, 2.45, 1.63, 8.20, repro,
2008-08-08,-1.96, 0.62, 7.28, 2.34, 1.55, 7.74, repro,
2008-08-09,-2.59, 0.34, 7.28, 2.45, 1.68, 8.25, repro,
2008-08-10,-2.70, -0.43, 13.01, 2.41, 1.59, 7.95, repro,
2008-08-11,-1.90, 0.29, 9.13, 2.33, 1.55, 7.68, repro,
2008-08-12,-2.75, 0.16, 10.08, 2.33, 1.56, 7.70, repro,
2008-08-13,-3.43, 1.51, 14.85, 2.60, 1.65, 8.39, repro,
2008-08-14,-4.25, 1.26, 14.72, 2.32, 1.53, 7.71, repro,
2008-08-15,-2.30, 2.20, 10.97, 2.34, 1.57, 7.68, repro,
2008-08-16,-3.87, 2.22, 12.80, 2.29, 1.51, 7.65, repro,
2008-08-17,-3.42, 2.05, 15.33, 2.35, 1.56, 7.77, repro,
2008-08-18,-3.58, 2.50, 15.87, 2.44, 1.68, 8.36, repro,
2008-08-19,-3.45, 2.92, 9.61, 2.33, 1.56, 7.79, repro,
2008-08-20,-3.39, 1.30, 12.05, 2.34, 1.55, 7.67, repro,
2008-08-21,-2.74, 1.48, 13.96, 2.30, 1.52, 7.57, repro,
2008-08-22,-4.37, 1.32, 19.73, 2.30, 1.53, 7.63, repro,
2008-08-23,-4.93, 2.99, 15.52, 2.32, 1.54, 7.67, repro,
2008-08-24,-0.97, 3.39, 19.60, 2.36, 1.56, 7.77, repro,
2008-08-25,-1.52, 2.62, 14.89, 2.28, 1.51, 7.56, repro,
2008-08-26,-2.15, 1.94, 16.31, 2.30, 1.52, 7.59, repro,
2008-08-27,-5.58, 0.59, 9.48, 2.39, 1.57, 7.82, repro,
2008-08-28,-3.67, 1.20, 17.83, 2.44, 1.60, 8.03, repro,
2008-08-29,-0.81, 1.40, 11.78, 2.36, 1.56, 7.73, repro,
2008-08-30,-1.32, 2.20, 9.65, 2.35, 1.55, 7.66, repro,
2008-08-31,-0.60, 0.98, 7.34, 2.34, 1.55, 7.61, repro,
2008-09-01,-0.25, 1.40, 12.63, 2.35, 1.54, 7.65, repro,
2008-09-02,-1.71, 0.90, 11.37, 2.38, 1.55, 7.75, repro,
2008-09-03,-1.33, 1.92, 16.26, 2.37, 1.56, 7.71, repro,
2008-09-04,-1.17, 1.47, 16.93, 2.66, 1.79, 8.75, repro,
2008-09-05,-1.73, 1.01, 17.44, 2.44, 1.60, 7.88, repro,
2008-09-06,-1.89, 2.62, 17.32, 2.66, 1.70, 8.56, repro,
2008-09-07,-3.65, 2.59, 14.64, 2.46, 1.64, 7.94, repro,
2008-09-08,-2.98, 1.01, 14.16, 2.41, 1.56, 7.82, repro,
2008-09-09,-1.08, 1.56, 15.01, 2.44, 1.62, 7.96, repro,
2008-09-10,-0.41, 2.16, 12.26, 2.48, 1.63, 8.10, repro,
2008-09-11,-1.54, 1.48, 15.20, 2.39, 1.57, 7.82, repro,
2008-09-12,-1.01, -0.31, 18.68, 2.39, 1.59, 7.90, repro,
2008-09-13,-4.48, 1.28, 15.63, 2.38, 1.60, 7.83, repro,
2008-09-14,-0.00, 1.95, 12.31, 2.43, 1.58, 7.89, repro,
2008-09-15,1.55, 2.90, 13.14, 2.50, 1.65, 8.42, repro,
2008-09-16,-1.68, 1.85, 18.49, 2.35, 1.59, 7.82, repro,
2008-09-17,0.97, 3.57, 18.92, 2.41, 1.60, 7.92, repro,
2008-09-18,-2.48, 3.64, 7.26, 2.33, 1.55, 7.71, repro,
2008-09-19,-2.93, 2.45, 13.04, 2.31, 1.52, 7.67, repro,
2008-09-20,1.26, 3.22, 9.75, 2.31, 1.52, 7.62, repro,
2008-09-21,-1.66, 3.35, 10.66, 2.31, 1.53, 7.70, repro,
2008-09-22,-0.31, 1.36, 10.33, 2.38, 1.57, 7.77, repro,
2008-09-23,-1.27, 2.82, 10.31, 2.28, 1.50, 7.49, repro,
2008-09-24,-2.05, 2.21, 9.83, 2.33, 1.54, 7.76, repro,
2008-09-25,0.37, 3.61, 9.88, 2.35, 1.54, 7.74, repro,
2008-09-26,-0.55, 2.22, 12.45, 2.36, 1.56, 7.68, repro,
2008-09-27,-1.09, 1.82, 12.62, 2.35, 1.54, 7.80, repro,
2008-09-28,-2.54, 1.00, 11.18, 2.34, 1.52, 7.81, repro,
2008-09-29,-1.34, 2.54, 9.64, 2.32, 1.53, 7.72, repro,
2008-09-30,-1.10, 1.08, 9.03, 2.36, 1.59, 7.81, repro,
2008-10-01,-1.42, 0.57, 9.27, 2.37, 1.55, 7.69, repro,
2008-10-02,0.96, 0.25, 8.80, 2.44, 1.62, 8.06, repro,
2008-10-03,-2.86, 1.16, 13.11, 2.44, 1.61, 8.07, repro,
2008-10-04,-2.43, 1.02, 16.87, 2.40, 1.57, 7.82, repro,
2008-10-05,-3.49, 1.00, 15.62, 2.35, 1.53, 7.79, repro,
2008-10-06,-2.38, 3.03, 14.79, 2.30, 1.51, 7.58, repro,